sat.trackr.live / text

‹ back to catalog

STARLINK-34955

NORAD 65192 · 2025-175U

PAYLOAD ACTIVE UNKNOWN

§ Identity

Operator
Country
US
Launch date
2025-08-14
Launch site
AFWTR
Launch vehicle
Mass (kg)
RCS (m²)

Purposes: comms

External: N2YO · Heavens-Above · Gunter

§ Orbital elements

Epoch: 2026-05-25T02:54:04.865760Z

Period
95.64 min
Inclination
97.4525°
Eccentricity
0.0001880
Mean motion
15.05658143 rev/d
Perigee alt
548.2 km
Apogee alt
550.8 km
Semi-major
6,927.6 km
B*
4.2156e-4
RAAN
17.6566°
Arg perigee
75.1494°
Mean anomaly
284.9942°
Rev number
4,411

§ Raw data

STARLINK-349551 65192U 25175U   26145.12088965  .00006030  00000+0  42156-3 0  99992 65192  97.4525  17.6566 0001880  75.1494 284.9942 15.05658143 44111

JSON: /api/v1/satellites/65192 · /tle

For live sub-satellite position, see the globe view (requires WebGL).

§ Visibility from observer

Set your observer location to see the next 7 days of passes ≥ 10°. The values pass through the URL so the page stays shareable.

No JS? Fill the form by hand. The geolocation button needs JavaScript.